Lapse_Rate
5.7 5.7 5.7 5.6 5.6 5.6 5.7 5.8 5.7 5.6 5.8 5.6 5.4 5.3 5.1 5.4 6.3 6.3 6.1 6.0 6.5 6.3 6.0 6.0 5.7 5.7 5.5 5.4 5.5 5.3 5.1 5.0 5.2 5.2 5.2 5.4 5.2 5.4
5.6 5.7 5.7 5.8 5.7 5.6 5.6 5.6 5.5 5.7 5.3 5.0 5.1 5.4 5.5 5.4 5.5 5.7 5.9 5.8 6.0 6.1 6.2 5.8 5.6 5.6 5.3 5.2 5.3 5.4 5.3 5.4 5.4 5.2 5.2 5.1 5.4 5.3
5.7 5.6 5.6 5.6 5.5 5.4 5.3 5.3 5.1 5.4 5.4 5.3 5.4 5.4 5.5 5.3 5.2 5.4 5.5 5.5 5.8 6.0 5.7 5.5 5.5 5.6 5.6 5.5 5.6 5.7 5.8 5.8 5.7 5.6 5.4 5.3 5.4 5.5
5.7 5.6 5.6 5.6 5.5 5.7 5.5 5.5 5.2 5.4 5.3 5.4 5.4 5.5 5.2 5.2 5.2 4.9 5.1 5.2 5.6 5.8 5.7 5.6 5.6 5.9 5.9 6.0 6.1 6.3 6.2 6.0 6.0 5.7 5.6 5.5 5.6 5.5
5.7 5.7 5.8 5.8 5.8 5.8 5.7 5.7 5.7 5.5 5.4 5.8 5.9 5.3 5.1 5.2 5.0 5.1 5.2 5.5 5.5 5.7 6.0 6.0 6.3 6.3 6.3 6.4 6.3 6.2 5.9 5.8 5.6 5.6 5.4 5.3 5.1 5.0
5.8 5.8 5.8 5.8 5.9 5.8 5.8 5.9 5.8 5.6 5.6 5.7 5.8 5.7 5.4 5.4 5.3 5.4 5.5 5.6 5.8 6.0 6.2 6.2 6.4 6.3 6.4 6.4 6.4 6.4 6.2 5.9 5.6 5.4 5.3 5.2 5.0 4.9
5.8 5.8 5.8 5.8 5.9 5.8 6.0 5.9 5.7 5.7 5.8 5.7 5.7 5.7 5.7 5.8 5.7 5.7 5.8 5.9 6.0 6.2 6.2 6.2 6.4 6.5 6.4 6.3 6.2 6.0 5.8 5.7 5.9 6.1 6.1 6.1 6.0 5.9
5.6 5.6 5.7 5.8 5.8 5.8 5.7 5.7 5.8 6.0 6.0 5.9 6.0 6.1 6.0 6.0 6.0 6.0 6.1 6.1 6.1 6.3 6.1 6.4 6.1 6.0 5.9 5.8 5.9 5.7 5.9 6.1 6.4 6.3 6.3 6.4 6.3 6.3
5.6 5.6 5.6 5.6 5.8 5.9 5.8 6.0 6.1 6.1 6.1 6.1 6.1 6.1 6.2 6.1 6.1 6.1 6.2 6.2 6.2 6.3 6.1 6.0 5.8 5.9 5.9 5.9 6.0 5.8 6.1 6.5 6.5 6.5 6.4 6.4 6.3 6.2
5.4 5.4 5.6 5.8 5.8 5.8 5.9 6.1 6.2 6.3 6.3 6.3 6.3 6.4 6.4 6.3 6.3 6.2 6.2 6.2 6.0 6.1 6.1 5.9 5.8 5.8 5.8 5.9 5.9 6.1 6.4 6.6 6.6 6.6 6.5 6.5 6.4 6.3
5.4 5.6 5.7 5.8 5.8 5.9 6.1 6.2 6.3 6.4 6.5 6.6 6.7 6.7 6.7 6.5 6.3 6.2 6.0 6.0 6.0 6.2 6.2 6.0 5.9 6.0 5.9 5.9 5.8 5.9 6.4 6.4 6.5 6.4 6.4 6.5 6.4 6.2
5.6 5.7 5.8 5.8 6.0 6.1 6.1 6.2 6.2 6.3 6.5 6.6 6.8 6.7 6.6 6.4 6.2 6.1 6.0 6.1 6.2 6.1 6.1 6.0 5.8 5.9 6.1 5.9 5.9 5.9 6.1 6.1 6.2 6.3 6.3 6.2 6.0 6.0
5.7 5.6 5.7 5.9 6.1 6.1 6.1 6.2 6.3 6.5 6.6 6.7 6.8 6.7 6.6 6.2 6.1 6.0 6.0 6.2 6.2 6.1 6.1 6.1 6.0 6.0 6.1 6.3 6.5 6.4 6.4 6.3 6.3 6.2 6.3 6.2 6.0 5.9
5.5 5.7 5.9 5.9 6.0 6.0 6.2 6.3 6.4 6.5 6.6 6.7 6.6 6.5 6.3 6.2 6.0 6.0 6.1 6.2 6.1 6.0 5.9 6.0 5.9 5.9 6.1 6.4 6.7 6.8 6.6 6.6 6.4 6.4 6.4 6.3 6.2 5.9
5.7 5.9 5.9 5.9 6.0 6.1 6.2 6.3 6.4 6.6 6.6 6.6 6.5 6.3 6.3 6.1 5.9 6.1 6.2 6.2 6.1 6.0 5.9 5.8 5.9 5.9 6.1 6.4 6.6 6.6 6.7 6.8 6.4 6.3 6.3 6.2 6.1 5.7
5.7 5.7 5.8 5.8 5.9 6.0 6.2 6.3 6.3 6.4 6.5 6.5 6.4 6.2 6.1 5.9 5.8 6.1 6.1 6.1 6.0 5.7 5.7 5.7 5.8 5.9 6.2 6.3 6.5 6.5 6.3 6.4 6.4 6.3 6.4 6.3 6.0 5.8
5.6 5.6 5.7 5.7 5.9 6.0 6.1 6.1 6.2 6.4 6.5 6.6 6.5 6.2 6.0 5.8 5.9 6.1 5.9 5.8 5.8 5.8 5.5 5.2 5.4 5.7 6.1 6.6 6.7 6.6 6.5 6.3 6.2 6.3 6.2 6.4 6.0 5.8
5.4 5.5 5.6 5.7 5.8 5.8 5.9 6.0 6.1 6.3 6.4 6.6 6.5 6.3 6.0 5.8 6.0 5.9 5.8 5.8 5.8 5.6 5.5 5.4 5.5 5.7 6.2 6.6 6.5 6.5 6.3 6.1 6.2 6.1 5.8 6.1 6.4 5.7
5.4 5.5 5.5 5.5 5.6 5.7 5.8 5.9 6.1 6.2 6.4 6.6 6.5 6.4 6.2 6.1 6.0 5.8 5.6 5.6 5.5 5.4 5.3 5.3 5.5 5.8 6.4 6.9 7.0 6.7 6.5 6.4 6.5 6.3 5.9 5.8 5.9 5.8
5.4 5.5 5.4 5.5 5.6 5.6 5.8 5.9 6.0 6.1 6.3 6.5 6.6 6.6 6.4 6.5 6.2 5.8 5.4 5.3 5.2 5.1 5.2 5.3 5.2 5.4 5.8 6.3 7.1 7.0 6.5 6.7 6.4 6.4 6.0 5.6 5.3 5.5
5.4 5.4 5.4 5.4 5.5 5.6 5.7 5.8 5.9 6.0 6.3 6.4 6.6 6.7 6.7 6.7 6.5 6.0 5.6 5.2 5.1 5.0 5.1 5.3 5.2 5.4 5.7 6.0 6.9 7.0 6.7 6.4 6.4 6.2 6.0 5.5 5.4 5.6
5.4 5.4 5.5 5.5 5.5 5.6 5.7 5.8 5.8 5.9 6.1 6.3 6.5 6.6 6.6 6.6 6.4 6.0 5.7 5.3 4.9 4.8 4.8 4.9 5.1 5.3 5.5 5.8 6.6 6.8 6.8 6.6 6.2 6.2 5.7 4.8 4.7 4.9
5.5 5.5 5.5 5.5 5.5 5.6 5.8 5.8 5.8 5.7 6.0 6.3 6.4 6.4 6.4 6.4 6.2 5.9 5.6 5.2 4.8 4.7 4.6 4.8 5.1 5.3 5.7 5.9 6.3 6.7 6.7 6.6 6.4 6.5 6.5 5.6 5.3 4.7
Wind_Speed
4 3 2 2 3 2 1 2 3 2 3 1 1 3 5 5 6 6 6 6 9 12 13 13 12 13 15 16 15 16 17 17 18 18 20 20 19 19
3 4 3 2 4 3 2 2 1 2 2 2 2 1 3 3 3 5 4 6 7 10 12 11 12 13 14 15 15 16 16 16 17 18 19 20 18 19
5 5 5 4 3 3 3 3 2 1 2 1 2 2 1 1 2 2 4 5 6 9 10 9 11 11 12 14 16 15 15 16 17 18 17 18 18 18
6 6 5 4 5 4 3 4 3 2 2 3 1 1 1 1 1 1 3 1 2 5 7 8 9 11 14 15 17 16 15 16 12 15 17 18 18 18
5 5 5 5 5 4 4 4 2 2 2 2 2 1 1 1 2 1 1 3 2 3 6 9 11 11 12 12 13 14 16 16 15 16 17 17 18 19
7 6 5 5 6 5 4 4 3 4 4 3 2 2 2 2 2 2 2 2 2 7 8 7 5 11 12 12 12 12 12 13 15 15 16 17 18 20
7 6 6 8 10 6 3 4 4 3 3 2 2 2 1 2 2 1 1 2 3 1 2 5 9 13 11 7 9 10 11 13 15 16 17 19 20 21
7 6 6 9 8 10 9 8 5 3 2 2 1 1 0 1 1 1 0 2 3 1 3 4 6 2 6 8 10 14 15 14 14 13 14 16 17 18
6 5 5 4 7 5 7 7 6 5 4 4 2 2 2 3 3 1 2 2 3 3 2 3 1 3 7 12 16 13 8 5 9 14 15 17 19 20
5 5 5 4 4 5 4 4 4 4 3 2 3 3 3 5 5 4 4 3 3 3 2 2 2 3 7 15 11 5 3 7 15 14 16 17 19 20
4 4 4 3 6 6 4 3 2 2 4 4 2 2 3 3 5 3 1 2 2 2 1 1 3 4 3 3 7 6 6 19 16 17 18 19 20 21
3 2 6 4 4 4 3 2 1 2 1 2 3 3 4 3 5 4 3 2 1 3 1 2 3 3 4 2 3 13 18 17 18 21 21 18 17 13
2 1 1 2 2 2 3 2 3 2 1 1 1 1 2 2 3 3 2 3 1 4 5 1 1 1 2 4 2 6 11 13 15 18 18 16 15 14
2 1 1 3 2 2 1 4 3 3 1 0 1 0 0 0 1 5 7 6 9 9 11 9 3 2 3 7 7 2 7 13 13 8 12 16 18 19
3 3 3 4 2 2 4 4 2 2 1 1 1 1 2 1 4 5 7 8 11 11 12 14 7 5 5 7 8 9 10 4 15 5 6 7 7 12
2 2 2 2 1 1 2 2 0 2 2 2 2 2 1 3 3 1 2 3 4 4 12 14 14 6 4 7 8 11 9 6 5 9 7 9 14 15
3 1 1 1 1 1 1 1 1 1 2 2 1 1 2 3 3 2 2 3 4 3 6 4 12 14 12 9 8 10 10 8 7 8 5 9 9 11
1 1 1 2 2 2 3 3 2 3 2 2 1 2 3 3 4 3 3 2 5 6 5 3 2 4 3 8 20 9 7 8 7 7 6 8 11 9
2 2 2 2 2 3 3 2 2 3 3 2 3 3 3 4 7 4 3 2 5 5 6 4 2 2 6 8 3 17 7 3 6 9 7 8 10 12
2 3 3 3 3 3 2 2 2 3 2 3 4 4 4 4 5 7 6 3 6 6 6 4 3 4 7 5 7 11 20 9 8 9 10 9 11 28
3 3 3 3 3 3 3 3 3 3 3 3 3 4 4 4 6 6 6 12 13 6 7 8 6 13 6 8 6 10 10 17 18 11 11 10 11 12
4 4 4 4 4 4 4 3 3 3 3 3 4 4 4 3 6 6 7 7 7 7 8 8 7 4 6 7 10 13 12 11 16 23 28 25 11 8
4 4 4 4 4 4 4 3 4 4 4 4 4 4 4 5 5 6 7 7 8 8 8 8 7 6 8 9 13 11 18 15 10 11 10 19 25 29
Wind_Direction
57 45 77 47 42 47 67 136 194 225 238 126 117 63 85 105 132 148 181 227 251 266 272 278 281 283 290 289 290 292 292 294 296 293 286 284 285 286
80 86 76 76 82 66 75 77 47 166 192 22 72 109 129 140 184 176 204 232 263 274 268 270 285 284 287 289 291 290 291 291 290 287 287 287 292 290
83 93 86 82 77 72 75 78 83 88 132 109 70 59 89 121 120 186 235 238 250 268 280 290 289 288 293 294 294 294 295 292 291 288 294 292 288 290
101 100 104 101 84 70 74 77 78 43 118 131 132 124 115 181 164 204 260 240 266 286 294 296 296 302 296 296 295 292 293 292 300 290 287 287 288 283
108 119 121 114 102 96 91 91 81 60 64 125 132 107 93 83 86 57 15 19 331 325 333 310 304 309 303 295 296 298 288 288 289 287 285 285 284 284
80 80 87 97 108 103 94 94 89 77 63 78 72 89 76 57 78 64 354 23 309 322 317 285 306 314 306 293 287 288 287 285 283 281 279 279 278 278
78 76 87 100 102 104 108 93 88 83 85 64 66 64 25 42 56 352 23 322 294 289 315 306 309 310 303 294 298 296 292 286 288 289 289 287 286 286
90 65 55 67 88 96 97 98 107 115 93 112 137 104 76 131 128 106 122 36 325 315 329 292 254 266 282 307 300 300 294 290 290 292 293 294 292 293
88 91 74 58 74 55 74 76 67 77 114 148 143 185 187 205 133 150 222 173 236 282 0 286 309 293 298 302 306 296 282 298 325 312 304 299 297 294
98 99 105 107 107 94 84 69 50 50 47 118 147 180 200 194 195 179 188 227 275 280 172 272 327 283 300 307 311 282 225 329 325 308 302 298 295 295
93 113 116 82 102 88 86 77 39 13 23 49 57 298 302 286 245 120 243 84 315 294 28 335 320 306 311 315 326 315 304 318 314 308 303 300 296 293
86 69 116 106 71 77 104 98 1 282 10 5 359 13 22 41 72 76 130 127 178 333 291 343 347 359 326 299 301 304 301 301 304 305 304 299 296 291
143 105 4 81 12 338 160 176 226 203 314 46 355 10 42 51 73 93 112 141 228 263 279 334 230 252 235 302 277 271 285 288 291 295 295 298 295 288
163 186 264 302 331 317 33 267 266 100 113 126 74 357 121 250 327 345 302 273 247 245 268 275 263 204 254 287 289 297 298 289 272 272 282 286 290 289
163 210 244 270 293 14 316 285 91 114 140 108 192 246 221 1 309 291 298 298 291 276 272 258 238 268 255 268 280 293 308 298 300 282 268 271 272 284
122 355 306 299 206 315 355 16 85 175 172 179 204 241 337 295 296 248 275 295 277 277 282 282 274 214 259 256 264 279 278 277 290 292 285 284 284 272
132 29 8 12 304 291 265 254 242 245 146 199 218 258 264 275 268 241 249 267 267 285 294 283 279 265 242 248 269 262 272 270 268 278 283 289 287 279
109 218 256 245 239 251 250 253 233 248 229 267 245 255 267 275 276 260 239 247 280 287 283 277 290 327 299 259 228 257 262 265 275 276 267 278 289 288
195 214 215 217 234 239 233 211 232 235 185 216 244 253 251 266 289 286 270 241 281 277 270 262 259 250 280 284 264 259 259 256 283 288 273 270 279 284
192 206 219 224 234 234 235 226 249 262 242 208 233 239 245 260 277 282 280 261 278 277 274 252 232 230 267 274 285 284 270 267 267 276 282 275 271 281
214 219 216 223 231 230 232 232 221 238 237 234 233 229 238 263 269 272 274 288 285 289 283 279 264 273 271 275 267 275 283 266 253 261 278 281 290 295
217 225 229 223 226 224 231 223 236 248 253 245 244 240 252 238 254 260 267 271 270 266 267 274 282 268 265 262 275 285 287 290 275 268 264 263 274 276
222 222 224 224 223 224 223 220 223 243 235 238 241 243 233 252 250 253 258 258 266 271 269 277 281 271 266 267 274 282 282 287 288 289 276 273 271 268